TimeCST,TemperatureF,Dew PointF,Humidity,Sea Level PressureIn,VisibilityMPH,Wind Direction,Wind SpeedMPH,Gust SpeedMPH,PrecipitationIn,Events,Conditions,WindDirDegrees,DateUTC
12:14 AM,47.3,33.4,59,30.09,10.0,SSE,8.1,-,N/A,,Clear,160,2012-11-19 06:14:00
12:35 AM,46.8,33.1,59,30.08,10.0,SSE,8.1,-,N/A,,Clear,160,2012-11-19 06:35:00
12:54 AM,46.4,32.9,59,30.08,10.0,SSE,8.1,-,N/A,,Scattered Clouds,150,2012-11-19 06:54:00
1:14 AM,45.1,32.9,62,30.08,10.0,SSE,6.9,-,N/A,,Scattered Clouds,150,2012-11-19 07:14:00
1:34 AM,46.6,33.1,59,30.08,10.0,SSE,5.8,-,N/A,,Mostly Cloudy,160,2012-11-19 07:34:00
1:54 AM,46.4,33.1,60,30.08,10.0,SSE,6.9,-,N/A,,Overcast,150,2012-11-19 07:54:00
2:14 AM,46.0,33.1,61,30.08,10.0,SSE,6.9,-,N/A,,Mostly Cloudy,150,2012-11-19 08:14:00
2:35 AM,45.7,33.3,62,30.07,10.0,SSE,8.1,-,N/A,,Scattered Clouds,150,2012-11-19 08:35:00
2:54 AM,45.0,32.9,63,30.06,10.0,SSE,8.1,-,N/A,,Scattered Clouds,160,2012-11-19 08:54:00
3:15 AM,44.8,32.9,63,30.06,10.0,SSE,9.2,-,N/A,,Clear,160,2012-11-19 09:15:00
3:34 AM,44.8,33.1,64,30.06,10.0,SSE,8.1,-,N/A,,Scattered Clouds,160,2012-11-19 09:34:00
3:54 AM,46.4,33.3,60,30.06,10.0,SSE,6.9,-,N/A,,Overcast,150,2012-11-19 09:54:00
4:15 AM,45.7,33.1,61,30.05,10.0,SSE,6.9,-,N/A,,Mostly Cloudy,150,2012-11-19 10:15:00
4:34 AM,46.0,32.9,60,30.05,10.0,SE,5.8,-,N/A,,Mostly Cloudy,140,2012-11-19 10:34:00
4:54 AM,44.6,32.9,64,30.05,10.0,SE,6.9,-,N/A,,Mostly Cloudy,140,2012-11-19 10:54:00
5:15 AM,44.6,32.7,63,30.05,10.0,SSE,8.1,-,N/A,,Mostly Cloudy,150,2012-11-19 11:15:00
5:34 AM,45.9,32.9,61,30.05,10.0,SSE,8.1,-,N/A,,Overcast,150,2012-11-19 11:34:00
6:15 AM,45.7,32.7,61,30.04,10.0,SSE,8.1,-,N/A,,Overcast,150,2012-11-19 12:15:00
6:34 AM,45.5,32.7,61,30.04,10.0,SSE,9.2,-,N/A,,Mostly Cloudy,160,2012-11-19 12:34:00
6:54 AM,45.7,32.9,61,30.04,10.0,SSE,9.2,-,N/A,,Mostly Cloudy,150,2012-11-19 12:54:00
7:34 AM,45.5,33.1,62,30.05,10.0,SSE,8.1,-,N/A,,Overcast,150,2012-11-19 13:34:00
7:54 AM,45.1,33.3,63,30.05,10.0,SSE,5.8,-,N/A,,Overcast,160,2012-11-19 13:54:00
8:15 AM,45.5,33.8,64,30.06,10.0,SSE,5.8,-,N/A,Thunderstorm,Mostly Cloudy,150,2012-11-19 14:15:00
8:34 AM,47.3,34.7,62,30.05,10.0,SSE,9.2,-,N/A,,Overcast,150,2012-11-19 14:34:00
8:54 AM,47.5,34.9,62,30.05,10.0,SSE,6.9,-,N/A,,Overcast,160,2012-11-19 14:54:00
9:15 AM,49.1,35.8,60,30.05,10.0,SSE,6.9,-,N/A,,Overcast,150,2012-11-19 15:15:00
9:34 AM,49.3,36.1,61,30.05,10.0,SSE,9.2,-,N/A,,Overcast,160,2012-11-19 15:34:00
9:54 AM,49.8,36.7,61,30.05,10.0,SSE,9.2,-,N/A,,Overcast,160,2012-11-19 15:54:00
10:15 AM,50.2,37.4,62,30.05,10.0,South,10.4,-,N/A,,Overcast,170,2012-11-19 16:15:00
10:34 AM,51.4,37.8,60,30.05,10.0,South,9.2,-,N/A,,Overcast,170,2012-11-19 16:34:00
10:54 AM,51.8,37.9,59,30.04,10.0,South,10.4,-,N/A,,Overcast,180,2012-11-19 16:54:00
11:15 AM,52.9,38.1,57,30.03,10.0,South,6.9,-,N/A,,Overcast,180,2012-11-19 17:15:00
11:34 AM,55.0,38.3,53,30.03,10.0,SSE,8.1,-,N/A,,Overcast,150,2012-11-19 17:34:00
11:54 AM,55.4,38.3,53,30.03,10.0,SSE,8.1,-,N/A,,Scattered Clouds,160,2012-11-19 17:54:00
12:15 PM,54.5,37.9,54,30.02,10.0,SSE,10.4,-,N/A,,Mostly Cloudy,160,2012-11-19 18:15:00
12:34 PM,53.1,37.4,55,30.02,10.0,South,9.2,-,N/A,,Overcast,170,2012-11-19 18:34:00
12:54 PM,53.6,37.9,55,30.02,10.0,South,9.2,-,N/A,,Overcast,180,2012-11-19 18:54:00
1:15 PM,53.4,37.8,55,30.03,10.0,SSW,4.6,-,N/A,,Overcast,200,2012-11-19 19:15:00
1:34 PM,53.6,38.3,56,30.02,10.0,SSE,4.6,-,N/A,,Overcast,150,2012-11-19 19:34:00
1:54 PM,53.6,38.3,56,30.03,10.0,SSE,5.8,-,N/A,,Overcast,150,2012-11-19 19:54:00
2:15 PM,53.6,38.5,57,30.02,10.0,SSE,4.6,-,N/A,,Overcast,150,2012-11-19 20:15:00
2:34 PM,54.0,38.7,56,30.02,10.0,SE,4.6,-,N/A,,Overcast,130,2012-11-19 20:34:00
2:54 PM,55.0,38.7,54,30.01,10.0,SSE,6.9,-,N/A,,Overcast,150,2012-11-19 20:54:00
3:15 PM,54.1,38.7,56,30.01,10.0,SE,5.8,-,N/A,,Overcast,130,2012-11-19 21:15:00
3:34 PM,54.5,38.7,55,30.02,10.0,SE,4.6,-,N/A,,Overcast,130,2012-11-19 21:34:00
3:54 PM,55.2,38.8,54,30.02,10.0,Calm,Calm,-,N/A,,Overcast,0,2012-11-19 21:54:00
4:15 PM,53.4,38.5,57,30.02,10.0,Calm,Calm,-,N/A,,Scattered Clouds,0,2012-11-19 22:15:00
4:34 PM,51.1,37.9,61,30.02,10.0,Calm,Calm,-,N/A,,Clear,0,2012-11-19 22:34:00
4:55 PM,48.7,37.8,66,30.02,10.0,Calm,Calm,-,N/A,,Scattered Clouds,0,2012-11-19 22:55:00
5:14 PM,47.3,38.5,71,30.03,10.0,Calm,Calm,-,N/A,,Scattered Clouds,0,2012-11-19 23:14:00
5:34 PM,42.8,36.1,77,30.03,10.0,Calm,Calm,-,N/A,,Scattered Clouds,0,2012-11-19 23:34:00
5:55 PM,41.2,35.2,79,30.03,10.0,Calm,Calm,-,N/A,,Scattered Clouds,0,2012-11-19 23:55:00
6:14 PM,39.7,34.2,80,30.04,10.0,Calm,Calm,-,N/A,,Scattered Clouds,0,2012-11-20 00:14:00
6:34 PM,38.8,34.7,85,30.05,10.0,Calm,Calm,-,N/A,,Scattered Clouds,0,2012-11-20 00:34:00
6:54 PM,39.2,34.5,83,30.05,10.0,Calm,Calm,-,N/A,,Scattered Clouds,0,2012-11-20 00:54:00
7:14 PM,39.2,35.8,88,30.05,10.0,Calm,Calm,-,N/A,,Scattered Clouds,0,2012-11-20 01:14:00
7:35 PM,37.4,34.7,90,30.05,10.0,Calm,Calm,-,N/A,,Scattered Clouds,0,2012-11-20 01:35:00
7:54 PM,37.8,34.9,89,30.05,10.0,Calm,Calm,-,N/A,,Scattered Clouds,0,2012-11-20 01:54:00
8:15 PM,35.2,32.2,89,30.05,10.0,Calm,Calm,-,N/A,,Scattered Clouds,0,2012-11-20 02:15:00
8:34 PM,34.0,32.2,93,30.05,10.0,Calm,Calm,-,N/A,,Scattered Clouds,0,2012-11-20 02:34:00
8:54 PM,34.9,32.7,92,30.05,10.0,Calm,Calm,-,N/A,,Scattered Clouds,0,2012-11-20 02:54:00
9:15 PM,34.2,32.2,92,30.04,10.0,Calm,Calm,-,N/A,,Scattered Clouds,0,2012-11-20 03:15:00
9:34 PM,36.0,34.3,94,30.04,10.0,Calm,Calm,-,N/A,,Scattered Clouds,0,2012-11-20 03:34:00
9:55 PM,34.7,32.9,93,30.05,10.0,Calm,Calm,-,N/A,,Scattered Clouds,0,2012-11-20 03:55:00
10:14 PM,33.6,32.0,94,30.05,10.0,Calm,Calm,-,N/A,,Scattered Clouds,0,2012-11-20 04:14:00
10:34 PM,34.2,32.7,94,30.06,10.0,Calm,Calm,-,N/A,,Scattered Clouds,0,2012-11-20 04:34:00
10:55 PM,32.0,30.9,96,30.06,10.0,Calm,Calm,-,N/A,,Scattered Clouds,0,2012-11-20 04:55:00
11:14 PM,31.8,30.7,96,30.06,10.0,Calm,Calm,-,N/A,,Scattered Clouds,0,2012-11-20 05:14:00
11:35 PM,34.5,33.6,97,30.07,10.0,NNW,3.5,-,N/A,,Scattered Clouds,330,2012-11-20 05:35:00
11:54 PM,37.4,35.8,94,30.07,10.0,North,3.5,-,N/A,,Scattered Clouds,350,2012-11-20 05:54:00